Location: Aldenham
(51.6667°N, 0.3500°W)
Time: 06:19:26
(UTC+00:00)

Cosmos 1602 - Pass Details

Date: 18 November 2025
Orbit: 366 x 374 km, 82.5° (Epoch: 11 December)

Event Time Altitude Azimuth Distance (km) Brightness Sun altitude
Rises 17:41:08 0° 351° (N) 2,287 7.0 -14.3°
Reaches altitude 10° 17:43:09 10° 353° (N) 1,431 5.9 -14.6°
Maximum altitude 17:46:15 73° 79° (ENE) 415 3.0 -15.0°
Drops below altitude 10° 17:49:20 10° 165° (SSE) 1,427 5.9 -15.5°
Sets 17:51:20 0° 167° (SSE) 2,280 7.0 -15.8°
